Location: Ecklingerode
(51.5036°N, 10.3122°E)
Time: 01:46:22
(UTC+00:00)

COSMOS 2455 - Pass Details

Date: 29 October 2020
Orbit: 899 x 911 km, 67.1° (Epoch: 23 November)

Event Time Altitude Azimuth Distance (km) Brightness Sun altitude
Rises 19:57:23 0° 322° (NW) 3,553 6.8 -37.2°
Reaches altitude 10° 19:59:58 10° 327° (NNW) 2,608 5.8 -37.6°
Enters shadow 20:02:50 28° 339° (NNW) 1,640 4.5 -38.0°
